| time (UTC) | temp F | wind direction | speed knots | gust knots | rain 1hr in | rain 24hr in | rain mn in | humidity % | barometer mb |
| 20260906053005 | 78 | 117 | 1.7 | 4.3 | 0.00 | 0.00 | 0.00 | 78 | 986.5 |
| 20260906052505 | 78 | 244 | 0.9 | 1.7 | 0.00 | 0.00 | 0.00 | 78 | 986.3 |
| 20260906052005 | 78 | 74 | 0.9 | 1.7 | 0.00 | 0.00 | 0.00 | 78 | 986.4 |
| 20260906051505 | 78 | 293 | 0.9 | 1.7 | 0.00 | 0.00 | 0.00 | 78 | 985.9 |
| 20260906051005 | 78 | 202 | 0.0 | 0.9 | 0.00 | 0.00 | 0.00 | 78 | 985.7 |
| 20260906050005 | 78 | 40 | 0.0 | 0.9 | 0.00 | 0.00 | 0.00 | 77 | 985.2 |
| 20260906045504 | 78 | 71 | 0.0 | 0.9 | 0.00 | 0.00 | 0.00 | 78 | 985.2 |
| 20260906044504 | 78 | 33 | 0.0 | 0.0 | 0.00 | 0.00 | 0.00 | 78 | 985.3 |
| 20260906044004 | 78 | 33 | 0.0 | 0.9 | 0.00 | 0.00 | 0.00 | 78 | 985.4 |
| 20260906043505 | 78 | 34 | 0.0 | 0.9 | 0.00 | 0.00 | 0.00 | 78 | 985.3 |
| 20260906043006 | 78 | 79 | 0.0 | 0.9 | 0.00 | 0.00 | 0.00 | 79 | 985.5 |
| 20260906042505 | 78 | 92 | 0.0 | 0.9 | 0.00 | 0.00 | 0.00 | 79 | 985.6 |
| 20260906041504 | 78 | 25 | 0.0 | 0.9 | 0.00 | 0.00 | 0.00 | 78 | 985.7 |
| 20260906041005 | 78 | 93 | 0.0 | 0.0 | 0.00 | 0.00 | 0.00 | 78 | 985.7 |
| 20260906040505 | 78 | 93 | 0.0 | 0.9 | 0.00 | 0.00 | 0.00 | 78 | 985.8 |
| 20260906040005 | 78 | 64 | 0.0 | 0.9 | 0.00 | 0.00 | 0.00 | 78 | 985.8 |
| 20260906035504 | 78 | 13 | 0.0 | 0.0 | 0.00 | 0.00 | 0.00 | 78 | 985.9 |
| 20260906035004 | 79 | 64 | 0.0 | 0.0 | 0.00 | 0.00 | 0.00 | 78 | 985.9 |
| 20260906034504 | 79 | 62 | 0.0 | 0.9 | 0.00 | 0.00 | 0.00 | 78 | 985.8 |
| 20260906034005 | 79 | 111 | 0.0 | 0.0 | 0.00 | 0.00 | 0.00 | 78 | 985.8 |
| 20260906033004 | 79 | 93 | 0.0 | 0.0 | 0.00 | 0.00 | 0.00 | 78 | 985.8 |
| 20260906032005 | 79 | 272 | 0.0 | 0.0 | 0.00 | 0.00 | 0.00 | 78 | 985.7 |
| 20260906031504 | 79 | 138 | 0.0 | 0.9 | 0.00 | 0.00 | 0.00 | 77 | 985.6 |
| 20260906031004 | 79 | 282 | 0.0 | 0.9 | 0.00 | 0.00 | 0.00 | 77 | 985.7 |
| 20260906030504 | 79 | 127 | 0.0 | 0.0 | 0.00 | 0.00 | 0.00 | 77 | 985.6 |
| 20260906030005 | 79 | 64 | 0.0 | 0.9 | 0.00 | 0.00 | 0.00 | 77 | 985.6 |
| 20260906025505 | 79 | 345 | 0.0 | 0.0 | 0.00 | 0.00 | 0.00 | 78 | 985.4 |
| 20260906025004 | 79 | 256 | 0.0 | 0.9 | 0.00 | 0.00 | 0.00 | 76 | 985.4 |
| 20260906024504 | 80 | 69 | 0.0 | 0.9 | 0.00 | 0.00 | 0.00 | 77 | 985.4 |
| 20260906024005 | 80 | 209 | 0.0 | 0.0 | 0.00 | 0.00 | 0.00 | 77 | 985.2 |
| 20260906023505 | 80 | 209 | 0.0 | 0.9 | 0.00 | 0.00 | 0.00 | 76 | 985.1 |
| 20260906023004 | 80 | 75 | 0.0 | 0.0 | 0.00 | 0.00 | 0.00 | 76 | 985.0 |
| 20260906022504 | 80 | 64 | 0.0 | 0.9 | 0.00 | 0.00 | 0.00 | 74 | 985.0 |
| 20260906021505 | 80 | 86 | 0.0 | 0.9 | 0.00 | 0.00 | 0.00 | 75 | 984.7 |
| 20260906021004 | 81 | 30 | 0.0 | 0.0 | 0.00 | 0.00 | 0.00 | 74 | 984.7 |
| 20260906020504 | 81 | 33 | 0.0 | 0.0 | 0.00 | 0.00 | 0.00 | 75 | 984.8 |
| 20260906020004 | 81 | 70 | 0.0 | 1.7 | 0.00 | 0.00 | 0.00 | 75 | 984.7 |
| 20260906015504 | 81 | 241 | 0.0 | 0.0 | 0.00 | 0.00 | 0.00 | 75 | 984.6 |
| 20260906015004 | 81 | 241 | 0.0 | 0.9 | 0.00 | 0.00 | 0.00 | 76 | 984.6 |
| 20260906014504 | 81 | 216 | 0.9 | 1.7 | 0.00 | 0.00 | 0.00 | 75 | 984.7 |
| 20260906013504 | 82 | 18 | 0.0 | 0.9 | 0.00 | 0.00 | 0.00 | 75 | 984.5 |
| 20260906013004 | 82 | 180 | 0.0 | 0.0 | 0.00 | 0.00 | 0.00 | 75 | 984.4 |
| 20260906012504 | 82 | 98 | 0.0 | 0.9 | 0.00 | 0.00 | 0.00 | 74 | 984.5 |
| 20260906011504 | 82 | 78 | 0.0 | 0.9 | 0.00 | 0.00 | 0.00 | 74 | 984.7 |
| 20260906010504 | 83 | 78 | 0.0 | 0.9 | 0.00 | 0.00 | 0.00 | 77 | 984.8 |
| 20260906005004 | 83 | 22 | 0.0 | 0.0 | 0.00 | 0.00 | 0.00 | 75 | 984.5 |
| 20260906004004 | 84 | 26 | 0.0 | 0.0 | 0.00 | 0.00 | 0.00 | 74 | 984.4 |
| 20260906003004 | 85 | 13 | 0.0 | 0.9 | 0.00 | 0.00 | 0.00 | 73 | 984.3 |
| 20260906002504 | 85 | 273 | 0.0 | 0.0 | 0.00 | 0.00 | 0.00 | 72 | 984.2 |
| 20260906002004 | 85 | 227 | 0.0 | 0.9 | 0.00 | 0.00 | 0.00 | 72 | 984.3 |
| 20260906001505 | 86 | 100 | 0.0 | 0.9 | 0.00 | 0.00 | 0.00 | 70 | 984.3 |
| 20260906001004 | 86 | 173 | 0.0 | 0.0 | 0.00 | 0.00 | 0.00 | 69 | 984.4 |
| 20260906000504 | 86 | 229 | 0.0 | 0.0 | 0.00 | 0.00 | 0.00 | 68 | 984.3 |
| 20260906000004 | 87 | 229 | 0.0 | 0.0 | 0.00 | 0.00 | 0.00 | 68 | 984.3 |
| 20260905235504 | 87 | 229 | 0.0 | 0.0 | 0.00 | 0.00 | 0.00 | 66 | 984.4 |
| 20260905235004 | 87 | 229 | 0.0 | 0.9 | 0.00 | 0.00 | 0.00 | 65 | 984.4 |
| 20260905234504 | 88 | 166 | 0.0 | 0.9 | 0.00 | 0.00 | 0.00 | 64 | 984.4 |
| 20260905234004 | 88 | 132 | 0.0 | 0.9 | 0.00 | 0.00 | 0.00 | 64 | 984.4 |
| 20260905233504 | 88 | 158 | 0.0 | 0.0 | 0.00 | 0.00 | 0.00 | 63 | 984.4 |
| 20260905233005 | 89 | 219 | 0.0 | 0.9 | 0.00 | 0.00 | 0.00 | 61 | 984.3 |
| 20260905232504 | 89 | 232 | 0.0 | 0.0 | 0.00 | 0.00 | 0.00 | 60 | 984.2 |
| 20260905232004 | 90 | 211 | 0.0 | 0.9 | 0.00 | 0.00 | 0.00 | 61 | 984.1 |
| 20260905231503 | 90 | 139 | 0.0 | 0.9 | 0.00 | 0.00 | 0.00 | 58 | 984.1 |
| 20260905231003 | 90 | 198 | 0.0 | 0.9 | 0.00 | 0.00 | 0.00 | 59 | 984.2 |
| 20260905230505 | 91 | 196 | 0.0 | 0.9 | 0.00 | 0.00 | 0.00 | 58 | 984.2 |
| 20260905225504 | 91 | 99 | 0.0 | 0.9 | 0.00 | 0.00 | 0.00 | 55 | 984.2 |
| 20260905225004 | 92 | 152 | 0.0 | 0.9 | 0.00 | 0.00 | 0.00 | 56 | 984.2 |
| 20260905224504 | 92 | 190 | 0.0 | 0.9 | 0.00 | 0.00 | 0.00 | 56 | 984.2 |
| 20260905224004 | 93 | 223 | 0.0 | 1.7 | 0.00 | 0.00 | 0.00 | 55 | 984.2 |
| 20260905223504 | 93 | 192 | 0.0 | 1.7 | 0.00 | 0.00 | 0.00 | 51 | 984.3 |
| 20260905223004 | 93 | 222 | 0.9 | 2.6 | 0.00 | 0.00 | 0.00 | 53 | 984.2 |
| 20260905222504 | 94 | 165 | 0.0 | 0.9 | 0.00 | 0.00 | 0.00 | 54 | 984.3 |
| 20260905222004 | 94 | 217 | 0.9 | 1.7 | 0.00 | 0.00 | 0.00 | 51 | 984.3 |
| 20260905220504 | 95 | 159 | 0.9 | 2.6 | 0.00 | 0.00 | 0.00 | 50 | 984.2 |
| 20260905220003 | 96 | 216 | 0.9 | 0.9 | 0.00 | 0.00 | 0.00 | 49 | 984.3 |
| 20260905215503 | 96 | 179 | 0.0 | 1.7 | 0.00 | 0.00 | 0.00 | 50 | 984.3 |
| 20260905215003 | 97 | 220 | 0.9 | 1.7 | 0.00 | 0.00 | 0.00 | 48 | 984.3 |
| 20260905214504 | 97 | 159 | 0.9 | 0.9 | 0.00 | 0.00 | 0.00 | 46 | 984.2 |
| 20260905214005 | 98 | 183 | 0.9 | 1.7 | 0.00 | 0.00 | 0.00 | 48 | 984.3 |
| 20260905213505 | 99 | 173 | 0.9 | 1.7 | 0.00 | 0.00 | 0.00 | 44 | 984.3 |
| 20260905213005 | 100 | 196 | 1.7 | 2.6 | 0.00 | 0.00 | 0.00 | 40 | 984.4 |
| 20260905212505 | 99 | 226 | 0.9 | 2.6 | 0.00 | 0.00 | 0.00 | 40 | 984.4 |
| 20260905212005 | 99 | 211 | 1.7 | 4.3 | 0.00 | 0.00 | 0.00 | 40 | 984.4 |
| 20260905211005 | 100 | 173 | 0.9 | 2.6 | 0.00 | 0.00 | 0.00 | 42 | 984.4 |
| 20260905210505 | 99 | 217 | 0.9 | 2.6 | 0.00 | 0.00 | 0.00 | 41 | 984.4 |
| 20260905210005 | 99 | 274 | 1.7 | 2.6 | 0.00 | 0.00 | 0.00 | 41 | 984.4 |
| 20260905205505 | 98 | 212 | 1.7 | 2.6 | 0.00 | 0.00 | 0.00 | 44 | 984.5 |
| 20260905205005 | 98 | 211 | 1.7 | 2.6 | 0.00 | 0.00 | 0.00 | 45 | 984.6 |
| 20260905204505 | 98 | 217 | 1.7 | 2.6 | 0.00 | 0.00 | 0.00 | 46 | 984.6 |
| 20260905204005 | 97 | 231 | 0.9 | 4.3 | 0.00 | 0.00 | 0.00 | 45 | 984.7 |
| 20260905203505 | 97 | 254 | 1.7 | 6.1 | 0.00 | 0.00 | 0.00 | 46 | 984.7 |
| 20260905202505 | 97 | 237 | 0.9 | 2.6 | 0.00 | 0.00 | 0.00 | 47 | 984.9 |
| 20260905202005 | 98 | 254 | 1.7 | 4.3 | 0.00 | 0.00 | 0.00 | 46 | 985.0 |
| 20260905201505 | 98 | 175 | 0.9 | 2.6 | 0.00 | 0.00 | 0.00 | 48 | 985.1 |
| 20260905201005 | 98 | 212 | 0.0 | 1.7 | 0.00 | 0.00 | 0.00 | 52 | 985.1 |
| 20260905200005 | 98 | 204 | 1.7 | 4.3 | 0.00 | 0.00 | 0.00 | 46 | 985.2 |
| 20260905195504 | 98 | 212 | 1.7 | 2.6 | 0.00 | 0.00 | 0.00 | 46 | 985.3 |
| 20260905195005 | 98 | 213 | 1.7 | 4.3 | 0.00 | 0.00 | 0.00 | 48 | 985.4 |
| 20260905194505 | 98 | 190 | 1.7 | 1.7 | 0.00 | 0.00 | 0.00 | 49 | 985.4 |
| 20260905194005 | 98 | 243 | 0.9 | 0.9 | 0.00 | 0.00 | 0.00 | 46 | 985.5 |
| 20260905193504 | 98 | 265 | 1.7 | 1.7 | 0.00 | 0.00 | 0.00 | 47 | 985.6 |
| 20260905193004 | 98 | 225 | 0.9 | 4.3 | 0.00 | 0.00 | 0.00 | 47 | 985.6 |
| 20260905192505 | 98 | 174 | 0.9 | 2.6 | 0.00 | 0.00 | 0.00 | 47 | 985.7 |
| 20260905192005 | 97 | 232 | 1.7 | 2.6 | 0.00 | 0.00 | 0.00 | 47 | 985.7 |
| 20260905191005 | 96 | 220 | 1.7 | 2.6 | 0.00 | 0.00 | 0.00 | 48 | 986.0 |
| 20260905190505 | 96 | 226 | 1.7 | 2.6 | 0.00 | 0.00 | 0.00 | 48 | 986.1 |
| 20260905190004 | 95 | 228 | 0.9 | 2.6 | 0.00 | 0.00 | 0.00 | 48 | 986.2 |
| 20260905185504 | 95 | 189 | 0.9 | 4.3 | 0.00 | 0.00 | 0.00 | 50 | 986.3 |
| 20260905184505 | 95 | 200 | 2.6 | 4.3 | 0.00 | 0.00 | 0.00 | 50 | 986.4 |
| 20260905184005 | 95 | 235 | 0.9 | 1.7 | 0.00 | 0.00 | 0.00 | 54 | 986.5 |
| 20260905183504 | 95 | 187 | 0.9 | 0.9 | 0.00 | 0.00 | 0.00 | 52 | 986.5 |
| 20260905183005 | 95 | 210 | 0.9 | 1.7 | 0.00 | 0.00 | 0.00 | 52 | 986.6 |
| 20260905182505 | 94 | 206 | 0.9 | 0.9 | 0.00 | 0.00 | 0.00 | 53 | 986.6 |
| 20260905182004 | 94 | 223 | 1.7 | 2.6 | 0.00 | 0.00 | 0.00 | 52 | 986.7 |
| 20260905181505 | 94 | 235 | 1.7 | 4.3 | 0.00 | 0.00 | 0.00 | 54 | 986.8 |
| 20260905181004 | 93 | 218 | 0.9 | 2.6 | 0.00 | 0.00 | 0.00 | 56 | 986.7 |
| 20260905180505 | 93 | 228 | 0.9 | 1.7 | 0.00 | 0.00 | 0.00 | 54 | 986.8 |
| 20260905180005 | 93 | 157 | 0.9 | 0.9 | 0.00 | 0.00 | 0.00 | 54 | 986.9 |
| 20260905175505 | 93 | 163 | 0.9 | 1.7 | 0.00 | 0.00 | 0.00 | 55 | 987.0 |
| 20260905175005 | 92 | 239 | 2.6 | 2.6 | 0.00 | 0.00 | 0.00 | 56 | 987.0 |
| 20260905174005 | 92 | 165 | 0.9 | 1.7 | 0.00 | 0.00 | 0.00 | 57 | 986.9 |
| 20260905173505 | 92 | 190 | 1.7 | 2.6 | 0.00 | 0.00 | 0.00 | 56 | 986.9 |
| 20260905173004 | 92 | 239 | 1.7 | 2.6 | 0.00 | 0.00 | 0.00 | 59 | 987.0 |
| 20260905172504 | 91 | 199 | 0.9 | 2.6 | 0.00 | 0.00 | 0.00 | 58 | 987.0 |
| 20260905172005 | 91 | 215 | 0.9 | 1.7 | 0.00 | 0.00 | 0.00 | 60 | 987.2 |
| 20260905171005 | 90 | 236 | 0.9 | 1.7 | 0.00 | 0.00 | 0.00 | 64 | 987.2 |
| 20260905170504 | 90 | 169 | 1.7 | 1.7 | 0.00 | 0.00 | 0.00 | 61 | 987.3 |
| 20260905170004 | 90 | 223 | 0.9 | 0.9 | 0.00 | 0.00 | 0.00 | 64 | 987.4 |
| 20260905165504 | 89 | 243 | 1.7 | 2.6 | 0.00 | 0.00 | 0.00 | 63 | 987.4 |
| 20260905165005 | 89 | 224 | 0.9 | 1.7 | 0.00 | 0.00 | 0.00 | 63 | 987.5 |
| 20260905164504 | 88 | 192 | 0.9 | 1.7 | 0.00 | 0.00 | 0.00 | 66 | 987.5 |
| 20260905164005 | 88 | 240 | 1.7 | 2.6 | 0.00 | 0.00 | 0.00 | 68 | 987.6 |
| 20260905163504 | 87 | 310 | 1.7 | 1.7 | 0.00 | 0.00 | 0.00 | 69 | 987.7 |
| 20260905163005 | 87 | 206 | 0.9 | 0.9 | 0.00 | 0.00 | 0.00 | 69 | 987.8 |
| 20260905162004 | 86 | 242 | 0.0 | 0.9 | 0.00 | 0.00 | 0.00 | 72 | 987.8 |
| 20260905161504 | 86 | 273 | 1.7 | 2.6 | 0.00 | 0.00 | 0.00 | 71 | 987.9 |
| 20260905161004 | 86 | 226 | 0.9 | 1.7 | 0.00 | 0.00 | 0.00 | 72 | 988.0 |
| 20260905160004 | 85 | 203 | 0.9 | 2.6 | 0.00 | 0.00 | 0.00 | 72 | 988.0 |
| 20260905155004 | 84 | 290 | 2.6 | 2.6 | 0.00 | 0.00 | 0.00 | 73 | 988.1 |
| 20260905154505 | 84 | 275 | 0.9 | 1.7 | 0.00 | 0.00 | 0.00 | 74 | 988.1 |
| 20260905154005 | 84 | 355 | 0.0 | 0.9 | 0.00 | 0.00 | 0.00 | 74 | 988.1 |
| 20260905153504 | 83 | 335 | 0.0 | 1.7 | 0.00 | 0.00 | 0.00 | 75 | 988.1 |
| 20260905153004 | 83 | 240 | 0.9 | 1.7 | 0.00 | 0.00 | 0.00 | 75 | 988.2 |
| 20260905152504 | 82 | 128 | 0.0 | 0.9 | 0.00 | 0.00 | 0.00 | 76 | 988.2 |
| 20260905152004 | 82 | 116 | 0.9 | 0.9 | 0.00 | 0.00 | 0.00 | 75 | 988.1 |
| 20260905151504 | 81 | 26 | 0.9 | 1.7 | 0.00 | 0.00 | 0.00 | 75 | 988.1 |
| 20260905151004 | 81 | 51 | 0.0 | 0.0 | 0.00 | 0.00 | 0.00 | 77 | 988.1 |
| 20260905150004 | 81 | 70 | 0.0 | 0.0 | 0.00 | 0.00 | 0.00 | 82 | 988.2 |
| 20260905145504 | 80 | 70 | 0.0 | 0.0 | 0.00 | 0.00 | 0.00 | 82 | 988.3 |
| 20260905145005 | 80 | 70 | 0.0 | 0.0 | 0.00 | 0.00 | 0.00 | 81 | 988.3 |
| 20260905144004 | 80 | 312 | 0.0 | 0.0 | 0.00 | 0.00 | 0.00 | 83 | 988.3 |
| 20260905142504 | 79 | 267 | 0.9 | 1.7 | 0.00 | 0.00 | 0.00 | 84 | 988.3 |
| 20260905142004 | 78 | 295 | 1.7 | 1.7 | 0.00 | 0.00 | 0.00 | 84 | 988.3 |
| 20260905141504 | 78 | 258 | 0.0 | 2.6 | 0.00 | 0.00 | 0.00 | 85 | 988.4 |
| 20260905141004 | 78 | 312 | 0.9 | 2.6 | 0.00 | 0.00 | 0.00 | 86 | 988.4 |
| 20260905140504 | 77 | 351 | 0.9 | 0.9 | 0.00 | 0.00 | 0.00 | 87 | 988.4 |
| 20260905140004 | 77 | 3 | 0.9 | 0.9 | 0.00 | 0.00 | 0.00 | 88 | 988.4 |
| 20260905135504 | 77 | 28 | 0.0 | 0.9 | 0.00 | 0.00 | 0.00 | 89 | 988.4 |
| 20260905135004 | 76 | 25 | 0.9 | 0.9 | 0.00 | 0.00 | 0.00 | 90 | 988.3 |
| 20260905134004 | 76 | 358 | 0.9 | 0.9 | 0.00 | 0.00 | 0.00 | 90 | 988.3 |
| 20260905133504 | 76 | 27 | 0.9 | 0.9 | 0.00 | 0.00 | 0.00 | 90 | 988.3 |
| 20260905133004 | 75 | 50 | 0.9 | 1.7 | 0.00 | 0.00 | 0.00 | 91 | 988.3 |
| 20260905132504 | 75 | 29 | 0.9 | 0.9 | 0.00 | 0.00 | 0.00 | 91 | 988.4 |
| 20260905132004 | 75 | 23 | 0.9 | 0.9 | 0.00 | 0.00 | 0.00 | 91 | 988.4 |
| 20260905131504 | 75 | 19 | 0.0 | 0.9 | 0.00 | 0.00 | 0.00 | 91 | 988.5 |
| 20260905131004 | 74 | 28 | 0.9 | 0.9 | 0.00 | 0.00 | 0.00 | 91 | 988.5 |
| 20260905130004 | 74 | 24 | 0.9 | 0.9 | 0.00 | 0.00 | 0.00 | 91 | 988.5 |
| 20260905125504 | 74 | 25 | 0.9 | 1.7 | 0.00 | 0.00 | 0.00 | 91 | 988.4 |
| 20260905125004 | 74 | 43 | 0.9 | 1.7 | 0.00 | 0.00 | 0.00 | 91 | 988.4 |
| 20260905124504 | 74 | 48 | 0.9 | 1.7 | 0.00 | 0.00 | 0.00 | 91 | 988.4 |
| 20260905123504 | 73 | 72 | 0.9 | 0.9 | 0.00 | 0.00 | 0.00 | 91 | 988.3 |
| 20260905123005 | 73 | 36 | 0.9 | 0.9 | 0.00 | 0.00 | 0.00 | 91 | 988.3 |
| 20260905122505 | 73 | 41 | 0.9 | 1.7 | 0.00 | 0.00 | 0.00 | 91 | 988.2 |
| 20260905122005 | 73 | 44 | 0.9 | 1.7 | 0.00 | 0.00 | 0.00 | 91 | 988.1 |
| 20260905121505 | 73 | 36 | 0.9 | 1.7 | 0.00 | 0.00 | 0.00 | 91 | 988.2 |
| 20260905121005 | 73 | 1 | 0.9 | 0.9 | 0.00 | 0.00 | 0.00 | 91 | 988.1 |
| 20260905120504 | 73 | 27 | 0.9 | 0.9 | 0.00 | 0.00 | 0.00 | 91 | 988.0 |
| 20260905120005 | 73 | 64 | 0.9 | 0.9 | 0.00 | 0.00 | 0.00 | 91 | 988.0 |
| 20260905115505 | 73 | 36 | 0.0 | 0.0 | 0.00 | 0.00 | 0.00 | 91 | 988.0 |
| 20260905115005 | 73 | 53 | 0.9 | 0.9 | 0.00 | 0.00 | 0.00 | 91 | 987.9 |
| 20260905114504 | 72 | 52 | 0.9 | 0.9 | 0.00 | 0.00 | 0.00 | 91 | 987.9 |
| 20260905114004 | 72 | 38 | 0.9 | 0.9 | 0.00 | 0.00 | 0.00 | 91 | 987.7 |
| 20260905113504 | 72 | 52 | 0.9 | 0.9 | 0.00 | 0.00 | 0.00 | 91 | 987.7 |
| 20260905113005 | 72 | 37 | 0.9 | 0.9 | 0.00 | 0.00 | 0.00 | 91 | 987.6 |
| 20260905112504 | 72 | 32 | 0.9 | 0.9 | 0.00 | 0.00 | 0.00 | 91 | 987.6 |
| 20260905112005 | 72 | 314 | 0.0 | 0.9 | 0.00 | 0.00 | 0.00 | 91 | 987.5 |
| 20260905111505 | 72 | 31 | 0.0 | 0.9 | 0.00 | 0.00 | 0.00 | 91 | 987.5 |
| 20260905111005 | 72 | 33 | 0.0 | 0.9 | 0.00 | 0.00 | 0.00 | 91 | 987.5 |
| 20260905110505 | 73 | 7 | 0.9 | 0.9 | 0.00 | 0.00 | 0.00 | 91 | 987.5 |
| 20260905110005 | 73 | 21 | 0.9 | 0.9 | 0.00 | 0.00 | 0.00 | 91 | 987.5 |
| 20260905105505 | 72 | 31 | 0.0 | 0.9 | 0.00 | 0.00 | 0.00 | 91 | 987.4 |
| 20260905105005 | 72 | 68 | 0.0 | 0.9 | 0.00 | 0.00 | 0.00 | 91 | 987.3 |
| 20260905104504 | 73 | 7 | 0.0 | 0.9 | 0.00 | 0.00 | 0.00 | 91 | 987.2 |
| 20260905104004 | 73 | 55 | 0.9 | 1.7 | 0.00 | 0.00 | 0.00 | 91 | 987.2 |
| 20260905103505 | 72 | 38 | 0.9 | 0.9 | 0.00 | 0.00 | 0.00 | 91 | 987.2 |
| 20260905103005 | 73 | 333 | 0.0 | 0.9 | 0.00 | 0.00 | 0.00 | 91 | 987.1 |
| 20260905102505 | 73 | 210 | 0.0 | 0.9 | 0.00 | 0.00 | 0.00 | 91 | 987.0 |
| 20260905102004 | 73 | 52 | 0.0 | 0.9 | 0.00 | 0.00 | 0.00 | 91 | 987.0 |
| 20260905101505 | 73 | 56 | 0.9 | 0.9 | 0.00 | 0.00 | 0.00 | 91 | 987.0 |
| 20260905100504 | 73 | 16 | 0.0 | 0.9 | 0.00 | 0.00 | 0.00 | 91 | 987.0 |
| 20260905100004 | 73 | 328 | 0.0 | 0.9 | 0.00 | 0.00 | 0.00 | 90 | 986.9 |
| 20260905095004 | 73 | 33 | 0.9 | 0.9 | 0.00 | 0.00 | 0.00 | 90 | 986.9 |
| 20260905094505 | 73 | 214 | 0.0 | 0.9 | 0.00 | 0.00 | 0.00 | 90 | 986.9 |
| 20260905093504 | 72 | 18 | 0.0 | 0.9 | 0.00 | 0.00 | 0.00 | 90 | 986.8 |
| 20260905093005 | 72 | 352 | 0.9 | 0.9 | 0.00 | 0.00 | 0.00 | 90 | 986.8 |
| 20260905092504 | 73 | 8 | 0.0 | 0.9 | 0.00 | 0.00 | 0.00 | 90 | 986.8 |
| 20260905092004 | 73 | 8 | 0.9 | 1.7 | 0.00 | 0.00 | 0.00 | 90 | 986.8 |
| 20260905091504 | 73 | 7 | 0.9 | 0.9 | 0.00 | 0.00 | 0.00 | 90 | 986.7 |
| 20260905091005 | 73 | 359 | 0.9 | 0.9 | 0.00 | 0.00 | 0.00 | 90 | 986.7 |
| 20260905090505 | 73 | 15 | 0.0 | 0.9 | 0.00 | 0.00 | 0.00 | 90 | 986.8 |
| 20260905085504 | 73 | 16 | 0.0 | 0.9 | 0.00 | 0.00 | 0.00 | 90 | 986.9 |
| 20260905085004 | 73 | 18 | 0.0 | 0.9 | 0.00 | 0.00 | 0.00 | 90 | 986.9 |
| 20260905084504 | 73 | 16 | 0.0 | 0.0 | 0.00 | 0.00 | 0.00 | 90 | 986.9 |
| 20260905083504 | 73 | 26 | 0.9 | 0.9 | 0.00 | 0.00 | 0.00 | 90 | 987.0 |
| 20260905083004 | 73 | 64 | 0.0 | 0.9 | 0.00 | 0.00 | 0.00 | 90 | 986.9 |
| 20260905082504 | 73 | 26 | 0.0 | 0.0 | 0.00 | 0.00 | 0.00 | 90 | 986.9 |
| 20260905082005 | 73 | 21 | 0.0 | 0.9 | 0.00 | 0.00 | 0.00 | 90 | 986.9 |
| 20260905081504 | 73 | 28 | 0.9 | 0.9 | 0.00 | 0.00 | 0.00 | 90 | 987.0 |
| 20260905081004 | 73 | 26 | 0.0 | 0.9 | 0.00 | 0.00 | 0.00 | 90 | 986.9 |
| 20260905080504 | 73 | 38 | 0.0 | 0.9 | 0.00 | 0.00 | 0.00 | 90 | 986.9 |
| 20260905075504 | 73 | 312 | 0.0 | 0.0 | 0.00 | 0.00 | 0.00 | 90 | 986.8 |
| 20260905075004 | 73 | 147 | 0.0 | 0.0 | 0.00 | 0.00 | 0.00 | 89 | 986.9 |
| 20260905074504 | 73 | 246 | 0.0 | 0.9 | 0.00 | 0.00 | 0.00 | 90 | 987.0 |
| 20260905074004 | 73 | 355 | 0.0 | 0.9 | 0.00 | 0.00 | 0.00 | 89 | 987.0 |
| 20260905073504 | 73 | 17 | 0.9 | 0.9 | 0.00 | 0.00 | 0.00 | 90 | 986.9 |
| 20260905072504 | 73 | 240 | 0.0 | 0.0 | 0.00 | 0.00 | 0.00 | 89 | 987.0 |
| 20260905072004 | 73 | 338 | 0.0 | 0.0 | 0.00 | 0.00 | 0.00 | 89 | 987.0 |
| 20260905071504 | 73 | 21 | 0.0 | 0.9 | 0.00 | 0.00 | 0.00 | 89 | 987.0 |
| 20260905071004 | 73 | 16 | 0.0 | 0.9 | 0.00 | 0.00 | 0.00 | 89 | 986.9 |
| 20260905070504 | 73 | 349 | 0.0 | 0.0 | 0.00 | 0.00 | 0.00 | 89 | 986.9 |
| 20260905064505 | 74 | 31 | 0.9 | 0.9 | 0.00 | 0.00 | 0.00 | 89 | 986.9 |
| 20260905064004 | 74 | 21 | 0.0 | 0.9 | 0.00 | 0.00 | 0.00 | 89 | 986.9 |
| 20260905063004 | 74 | 21 | 0.0 | 0.0 | 0.00 | 0.00 | 0.00 | 89 | 987.0 |
| 20260905062505 | 74 | 22 | 0.0 | 0.0 | 0.00 | 0.00 | 0.00 | 89 | 987.1 |
| 20260905062005 | 74 | 39 | 0.0 | 0.9 | 0.00 | 0.00 | 0.00 | 89 | 987.1 |
| 20260905061505 | 74 | 13 | 0.0 | 0.0 | 0.00 | 0.00 | 0.00 | 89 | 987.1 |
| 20260905061004 | 74 | 44 | 0.0 | 0.9 | 0.00 | 0.00 | 0.00 | 88 | 987.1 |
| 20260905060504 | 74 | 84 | 0.0 | 0.9 | 0.00 | 0.00 | 0.00 | 88 | 987.1 |
| 20260905060004 | 74 | 249 | 0.0 | 0.9 | 0.00 | 0.00 | 0.00 | 88 | 987.1 |
| 20260905055004 | 74 | 293 | 0.0 | 0.0 | 0.00 | 0.00 | 0.00 | 88 | 987.0 |
| 20260905054503 | 74 | 293 | 0.0 | 0.0 | 0.00 | 0.00 | 0.00 | 88 | 987.1 |
| 20260905054004 | 74 | 293 | 0.0 | 0.0 | 0.00 | 0.00 | 0.00 | 88 | 987.1 |
| 20260905053504 | 74 | 293 | 0.0 | 0.0 | 0.00 | 0.00 | 0.00 | 88 | 987.2 |